GSAT0205 (GALILEO 9) (40889 NORAD) Tracking and Keplerian Element Data

This shows tracking and keplerian element data for the satellite.

Feedback or suggestion? Click here.




ElementValue
Catalog40889
NameGSAT0205 (GALILEO 9)
Epoch Orbit2027
Epoch Day348.54158304
Epoch Year2018
RAAN297.2338
Inclination56.596
Eccentricity0.0003678
Argument of Perigee347.3845
Mean Anonmoly12.6067
Mean Motion1.70474528
Decay Rate-3.7E-07
L11 40889U 15045A 18348.54158304 -.00000037 00000-0 00000+0 0 9998
L22 40889 56.5960 297.2338 0003678 347.3845 12.6067 1.70474528 20275

Live tracking and technical data element details for GSAT0205 (GALILEO 9) (NORAD 40889). GSAT0205 (GALILEO 9) can be tracked NOW for your location showing map with azimuth and elevation plus other details from your city location.

Track the satellite on the map from your city or location and see movement details for azimuth, elevation, latitude, longitude, range, height, and movement on the map or in text.







IsCatalogInMostPopularTable: catalog: 40889, numindb: 117
Update: records affected: 1



GetName: 40889 GSAT0205 (GALILEO 9)

Hit Count: updated at: Sun, 16 Dec 2018 03:06:20 GMT